Location: Blue Pit
(43.1414°N, 93.2208°W)
Time: 23:49:31
(UTC+00:00)

Cosmos 1441 Rocket - Pass Details

Date: 18 November 2025
Orbit: 424 x 447 km, 81.1° (Epoch: 14 December)

Event Time Altitude Azimuth Distance (km) Brightness Sun altitude
Rises 12:34:52 0° 210° (SSW) 2,385 6.5 -6.7°
Reaches altitude 10° 12:37:04 10° 221° (SW) 1,520 5.4 -6.3°
Maximum altitude 12:40:03 31° 285° (WNW) 785 3.6 -5.8°
Drops below altitude 10° 12:43:02 10° 350° (N) 1,525 5.3 -5.3°
Sets 12:45:14 0° 1° (N) 2,395 6.4 -4.9°
